Hourly Data Report for October 10, 2014

All times are specified in Local Standard Time (LST). Add 1 hour to adjust for Daylight Saving Time where and when it is observed.

CAPE DORSET A
NUNAVUT

64°13'49.000" N
76°31'30.000" W
48.20 m
2400637
71366
YTE

Download Data

Hourly Data (October 2014)
Hourly Data Report for October 10, 2014
Temp Definition
°C
Dew Point Temp Definition
°C
Rel Hum Definition
%
Wind Dir Definition
10's deg

Wind Spd Definition
km/h
Visibility Definition
km
Stn Press Definition
kPa
Hmdx Definition


Wind Chill Definition


Weather Definition


TIME
00:00 Legend Double Dagger -4.5 -8.4 75 33 22 16.1 99.83   -11 LegendNANA
01:00 Legend Double Dagger -3.5 -6.3 81 33 26 16.1 99.69   -11 Snow
02:00 Legend Double Dagger -3.2 -7.4 73 32 32 16.1 99.60   -11 LegendNANA
03:00 Legend Double Dagger -3.1 -6.8 76 31 32 16.1 99.49   -11 LegendNANA
04:00 Legend Double Dagger -3.2 -6.0 81 31 24 16.1 99.38   -10 LegendNANA
05:00 Legend Double Dagger -3.3 -5.6 84 29 21 16.1 99.21   -10 LegendNANA
06:00 Legend Double Dagger -3.2 -5.4 85 4 17 16.1 99.14   -9 LegendNANA
07:00 Legend Double Dagger -4.8 -7.6 81 36 17 16.1 99.10   -11 LegendNANA
08:00 Legend Double Dagger -4.2 -7.0 81 29 17 16.1 99.00   -10 LegendNANA
09:00 Legend Double Dagger -3.0 -5.3 84 30 21 16.1 98.89   -9 Snow
10:00 Legend Double Dagger -2.5 -4.5 86 35 18 9.7 98.81   -8 Snow
11:00 Legend Double Dagger -2.0 -4.8 81 31 26 16.1 98.70   -9 Snow
12:00 Legend Double Dagger -2.1 -6.1 74 32 34 16.1 98.59   -10 LegendNANA
13:00 Legend Double Dagger -2.1 -6.1 74 30 28 16.1 98.54   -9 LegendNANA
14:00 Legend Double Dagger -1.8 -5.0 79 29 28 16.1 98.44   -9 LegendNANA
15:00 Legend Double Dagger -1.4 -4.3 81 29 32 16.1 98.33   -9 LegendNANA
16:00 Legend Double Dagger -1.3 -4.0 82 28 30 16.1 98.23   -8 LegendNANA
17:00 Legend Double Dagger -1.3 -3.8 83 28 30 16.1 98.19   -8 Snow
18:00 Legend Double Dagger -1.4 -3.0 89 27 28 9.7 98.10   -8 Snow
19:00 Legend Double Dagger -1.4 -2.6 92 26 21 14.5 98.08   -7 Snow
20:00 Legend Double Dagger -0.9 -2.8 87 27 22 16.1 98.03   -7 Snow
21:00 Legend Double Dagger -0.9 -2.6 88 24 18 16.1 98.03   -6 Snow
22:00 Legend Double Dagger -0.9 -1.8 94 25 21 11.3 97.99   -7 Snow
23:00 Legend Double Dagger -1.0 -1.1 99 25 18 4.8 97.94   -6 Fog

Notes on Data Quality.

Legend

  • E = Estimated
  • M = Missing
  • NA = Not Available
  • ‡ = Partner data that is not subject to review by the National Climate Archives
Date modified: